| time (UTC) | temp C | wind direction | speed KPH | gust KPH | rain 1hr cm | rain 24hr cm | rain mn cm | humidity % | barometer mb |
| 20260509193128 | 30 | 221 | 9.7 | 17.7 | 0.00 | 0.00 | 0.00 | 55 | 1007.0 |
| 20260509192516 | 30 | 240 | 9.7 | 20.9 | 0.00 | 0.00 | 0.00 | 57 | 1007.0 |
| 20260509192108 | 30 | 229 | 11.3 | 20.9 | 0.00 | 0.00 | 0.00 | 61 | 1007.0 |
| 20260509191625 | 30 | 210 | 9.7 | 16.1 | 0.00 | 0.00 | 0.00 | 64 | 1007.1 |
| 20260509191006 | 30 | 193 | 9.7 | 17.7 | 0.00 | 0.00 | 0.00 | 64 | 1007.1 |
| 20260509190529 | 30 | 247 | 11.3 | 19.3 | 0.00 | 0.00 | 0.00 | 65 | 1007.2 |
| 20260509190051 | 30 | 200 | 8.0 | 17.7 | 0.00 | 0.00 | 0.00 | 66 | 1007.3 |
| 20260509185538 | 31 | 188 | 8.0 | 19.3 | 0.00 | 0.00 | 0.00 | 66 | 1007.4 |
| 20260509185128 | 30 | 122 | 9.7 | 20.9 | 0.00 | 0.00 | 0.00 | 68 | 1007.5 |
| 20260509184530 | 30 | 188 | 8.0 | 14.5 | 0.00 | 0.00 | 0.00 | 68 | 1007.5 |
| 20260509184054 | 30 | 242 | 8.0 | 17.7 | 0.00 | 0.00 | 0.00 | 68 | 1007.5 |
| 20260509183612 | 30 | 239 | 8.0 | 17.7 | 0.00 | 0.00 | 0.00 | 67 | 1007.5 |
| 20260509183028 | 30 | 257 | 6.4 | 17.7 | 0.00 | 0.00 | 0.00 | 66 | 1007.4 |
| 20260509182537 | 31 | 251 | 8.0 | 16.1 | 0.00 | 0.00 | 0.00 | 65 | 1007.5 |
| 20260509182103 | 31 | 259 | 8.0 | 16.1 | 0.00 | 0.00 | 0.00 | 65 | 1007.6 |
| 20260509181623 | 31 | 252 | 3.2 | 11.3 | 0.00 | 0.00 | 0.00 | 65 | 1007.5 |
| 20260509181011 | 31 | 234 | 4.8 | 12.9 | 0.00 | 0.00 | 0.00 | 65 | 1007.5 |
| 20260509180527 | 30 | 231 | 6.4 | 12.9 | 0.00 | 0.00 | 0.00 | 66 | 1007.5 |
| 20260509180058 | 30 | 262 | 6.4 | 16.1 | 0.00 | 0.00 | 0.00 | 66 | 1007.5 |
| 20260509175621 | 30 | 235 | 8.0 | 16.1 | 0.00 | 0.00 | 0.00 | 65 | 1007.5 |
| 20260509175008 | 30 | 234 | 6.4 | 16.1 | 0.00 | 0.00 | 0.00 | 65 | 1007.5 |
| 20260509174524 | 30 | 172 | 9.7 | 16.1 | 0.00 | 0.00 | 0.00 | 65 | 1007.5 |
| 20260509174108 | 30 | 256 | 8.0 | 14.5 | 0.00 | 0.00 | 0.00 | 64 | 1007.4 |
| 20260509173622 | 30 | 228 | 8.0 | 14.5 | 0.00 | 0.00 | 0.00 | 64 | 1007.4 |
| 20260509173010 | 30 | 221 | 6.4 | 12.9 | 0.00 | 0.00 | 0.00 | 65 | 1007.4 |
| 20260509172524 | 30 | 205 | 6.4 | 14.5 | 0.00 | 0.00 | 0.00 | 66 | 1007.4 |
| 20260509172051 | 30 | 237 | 6.4 | 14.5 | 0.00 | 0.00 | 0.00 | 65 | 1007.4 |
| 20260509171609 | 30 | 360 | 3.2 | 12.9 | 0.00 | 0.00 | 0.00 | 66 | 1007.4 |
| 20260509171004 | 30 | 274 | 3.2 | 12.9 | 0.00 | 0.00 | 0.00 | 65 | 1007.4 |
| 20260509170523 | 30 | 265 | 6.4 | 12.9 | 0.00 | 0.00 | 0.00 | 64 | 1007.5 |
| 20260509170039 | 30 | 225 | 4.8 | 12.9 | 0.00 | 0.00 | 0.00 | 64 | 1007.4 |
| 20260509165525 | 30 | 246 | 4.8 | 12.9 | 0.00 | 0.00 | 0.00 | 64 | 1007.5 |
| 20260509165112 | 30 | 248 | 4.8 | 12.9 | 0.00 | 0.00 | 0.00 | 65 | 1007.5 |
| 20260509164629 | 30 | 192 | 4.8 | 11.3 | 0.00 | 0.00 | 0.00 | 66 | 1007.5 |
| 20260509164046 | 29 | 234 | 6.4 | 11.3 | 0.00 | 0.00 | 0.00 | 67 | 1007.6 |
| 20260509163607 | 29 | 213 | 4.8 | 11.3 | 0.00 | 0.00 | 0.00 | 67 | 1007.6 |
| 20260509163008 | 29 | 281 | 4.8 | 12.9 | 0.00 | 0.00 | 0.00 | 67 | 1007.6 |
| 20260509162524 | 29 | 213 | 6.4 | 12.9 | 0.00 | 0.00 | 0.00 | 67 | 1007.6 |
| 20260509162058 | 29 | 240 | 6.4 | 12.9 | 0.00 | 0.00 | 0.00 | 67 | 1007.7 |
| 20260509161619 | 29 | 221 | 8.0 | 11.3 | 0.00 | 0.00 | 0.00 | 67 | 1007.7 |
| 20260509161018 | 29 | 232 | 8.0 | 11.3 | 0.00 | 0.00 | 0.00 | 66 | 1007.6 |
| 20260509160536 | 29 | 227 | 6.4 | 11.3 | 0.00 | 0.00 | 0.00 | 65 | 1007.6 |
| 20260509160051 | 29 | 207 | 4.8 | 8.0 | 0.00 | 0.00 | 0.00 | 63 | 1007.6 |
| 20260509155541 | 29 | 216 | 4.8 | 8.0 | 0.00 | 0.00 | 0.00 | 64 | 1007.6 |
| 20260509155133 | 29 | 250 | 3.2 | 8.0 | 0.00 | 0.00 | 0.00 | 64 | 1007.6 |
| 20260509154516 | 29 | 212 | 3.2 | 8.0 | 0.00 | 0.00 | 0.00 | 65 | 1007.5 |
| 20260509154104 | 29 | 292 | 3.2 | 6.4 | 0.00 | 0.00 | 0.00 | 64 | 1007.6 |
| 20260509153618 | 28 | 276 | 3.2 | 8.0 | 0.00 | 0.00 | 0.00 | 66 | 1007.5 |
| 20260509153015 | 28 | 227 | 1.6 | 8.0 | 0.00 | 0.00 | 0.00 | 65 | 1007.6 |
| 20260509152534 | 28 | 274 | 1.6 | 9.7 | 0.00 | 0.00 | 0.00 | 65 | 1007.6 |
| 20260509152102 | 28 | 244 | 3.2 | 9.7 | 0.00 | 0.00 | 0.00 | 65 | 1007.7 |
| 20260509151623 | 28 | 228 | 1.6 | 9.7 | 0.00 | 0.00 | 0.00 | 63 | 1007.6 |
| 20260509151133 | 27 | 237 | 3.2 | 6.4 | 0.00 | 0.00 | 0.00 | 61 | 1007.5 |
| 20260509150518 | 27 | 186 | 3.2 | 8.0 | 0.00 | 0.00 | 0.00 | 61 | 1007.5 |
| 20260509150045 | 27 | 231 | 3.2 | 6.4 | 0.00 | 0.00 | 0.00 | 61 | 1007.6 |
| 20260509145611 | 27 | 281 | 0.0 | 6.4 | 0.00 | 0.00 | 0.00 | 61 | 1007.6 |
| 20260509145021 | 27 | 325 | 1.6 | 6.4 | 0.00 | 0.00 | 0.00 | 62 | 1007.5 |
| 20260509144536 | 27 | 328 | 3.2 | 6.4 | 0.00 | 0.00 | 0.00 | 61 | 1007.6 |
| 20260509144056 | 26 | 347 | 0.0 | 4.8 | 0.00 | 0.00 | 0.00 | 61 | 1007.5 |
| 20260509143612 | 26 | 348 | 0.0 | 4.8 | 0.00 | 0.00 | 0.00 | 61 | 1007.4 |
| 20260509143008 | 26 | 348 | 1.6 | 4.8 | 0.00 | 0.00 | 0.00 | 62 | 1007.3 |
| 20260509142530 | 25 | 348 | 0.0 | 4.8 | 0.00 | 0.00 | 0.00 | 63 | 1007.4 |
| 20260509142045 | 25 | 349 | 0.0 | 3.2 | 0.00 | 0.00 | 0.00 | 63 | 1007.4 |
| 20260509141608 | 25 | 348 | 1.6 | 4.8 | 0.00 | 0.00 | 0.00 | 64 | 1007.3 |
| 20260509141028 | 25 | 343 | 0.0 | 4.8 | 0.00 | 0.00 | 0.00 | 64 | 1007.3 |
| 20260509140544 | 25 | 329 | 0.0 | 3.2 | 0.00 | 0.00 | 0.00 | 64 | 1007.3 |
| 20260509135606 | 24 | 327 | 1.6 | 4.8 | 0.00 | 0.00 | 0.00 | 63 | 1007.3 |
| 20260509135014 | 24 | 328 | 1.6 | 4.8 | 0.00 | 0.00 | 0.00 | 64 | 1007.2 |
| 20260509134534 | 24 | 152 | 0.0 | 0.0 | 0.00 | 0.00 | 0.00 | 66 | 1007.1 |
| 20260509134051 | 24 | 150 | 0.0 | 0.0 | 0.00 | 0.00 | 0.00 | 69 | 1007.0 |
| 20260509133610 | 23 | 150 | 0.0 | 0.0 | 0.00 | 0.00 | 0.00 | 70 | 1007.1 |
| 20260509133023 | 23 | 150 | 0.0 | 0.0 | 0.00 | 0.00 | 0.00 | 71 | 1007.1 |
| 20260509132536 | 23 | 150 | 0.0 | 0.0 | 0.00 | 0.00 | 0.00 | 71 | 1007.1 |
| 20260509132105 | 23 | 150 | 0.0 | 0.0 | 0.00 | 0.00 | 0.00 | 71 | 1007.1 |
| 20260509131617 | 23 | 150 | 0.0 | 0.0 | 0.00 | 0.00 | 0.00 | 71 | 1007.0 |
| 20260509131006 | 23 | 150 | 0.0 | 0.0 | 0.00 | 0.00 | 0.00 | 71 | 1006.9 |
| 20260509130526 | 23 | 150 | 0.0 | 0.0 | 0.00 | 0.00 | 0.00 | 71 | 1006.9 |
| 20260509130107 | 23 | 150 | 0.0 | 0.0 | 0.00 | 0.00 | 0.00 | 71 | 1006.8 |
| 20260509125614 | 23 | 150 | 0.0 | 0.0 | 0.00 | 0.00 | 0.00 | 70 | 1006.8 |
| 20260509125015 | 23 | 150 | 0.0 | 0.0 | 0.00 | 0.00 | 0.00 | 70 | 1006.7 |
| 20260509124541 | 23 | 150 | 0.0 | 0.0 | 0.00 | 0.00 | 0.00 | 69 | 1006.8 |
| 20260509124102 | 23 | 150 | 0.0 | 0.0 | 0.00 | 0.00 | 0.00 | 69 | 1006.7 |
| 20260509123621 | 23 | 150 | 0.0 | 0.0 | 0.00 | 0.00 | 0.00 | 69 | 1006.7 |
| 20260509123010 | 23 | 150 | 0.0 | 0.0 | 0.00 | 0.00 | 0.00 | 67 | 1006.7 |
| 20260509122532 | 23 | 150 | 0.0 | 0.0 | 0.00 | 0.00 | 0.00 | 66 | 1006.6 |
| 20260509122100 | 23 | 150 | 0.0 | 0.0 | 0.00 | 0.00 | 0.00 | 65 | 1006.7 |
| 20260509121634 | 23 | 150 | 0.0 | 0.0 | 0.00 | 0.00 | 0.00 | 65 | 1006.7 |
| 20260509121006 | 23 | 150 | 0.0 | 0.0 | 0.00 | 0.00 | 0.00 | 66 | 1006.8 |
| 20260509120530 | 23 | 150 | 0.0 | 0.0 | 0.00 | 0.00 | 0.00 | 66 | 1006.7 |
| 20260509120049 | 23 | 150 | 0.0 | 0.0 | 0.00 | 0.00 | 0.00 | 67 | 1006.7 |
| 20260509115609 | 23 | 150 | 0.0 | 0.0 | 0.00 | 0.00 | 0.00 | 68 | 1006.7 |
| 20260509115005 | 23 | 150 | 0.0 | 0.0 | 0.00 | 0.00 | 0.00 | 69 | 1006.6 |
| 20260509114522 | 23 | 150 | 0.0 | 0.0 | 0.00 | 0.00 | 0.00 | 71 | 1006.6 |
| 20260509114058 | 23 | 150 | 0.0 | 0.0 | 0.00 | 0.00 | 0.00 | 71 | 1006.6 |
| 20260509113623 | 23 | 150 | 0.0 | 0.0 | 0.00 | 0.00 | 0.00 | 71 | 1006.5 |
| 20260509113004 | 23 | 150 | 0.0 | 0.0 | 0.00 | 0.00 | 0.00 | 72 | 1006.5 |
| 20260509112525 | 23 | 150 | 0.0 | 0.0 | 0.00 | 0.00 | 0.00 | 72 | 1006.4 |
| 20260509112100 | 23 | 150 | 0.0 | 0.0 | 0.00 | 0.00 | 0.00 | 72 | 1006.4 |
| 20260509111616 | 23 | 150 | 0.0 | 0.0 | 0.00 | 0.00 | 0.00 | 72 | 1006.2 |
| 20260509111012 | 23 | 150 | 0.0 | 0.0 | 0.00 | 0.00 | 0.00 | 72 | 1006.2 |
| 20260509110529 | 23 | 150 | 0.0 | 0.0 | 0.00 | 0.00 | 0.00 | 72 | 1006.2 |
| 20260509110039 | 23 | 151 | 0.0 | 0.0 | 0.00 | 0.00 | 0.00 | 72 | 1006.3 |
| 20260509105615 | 23 | 151 | 0.0 | 0.0 | 0.00 | 0.00 | 0.00 | 72 | 1006.3 |
| 20260509105026 | 24 | 151 | 0.0 | 0.0 | 0.00 | 0.00 | 0.00 | 72 | 1006.2 |
| 20260509104543 | 24 | 151 | 0.0 | 0.0 | 0.00 | 0.00 | 0.00 | 72 | 1006.2 |
| 20260509104109 | 24 | 151 | 0.0 | 0.0 | 0.00 | 0.00 | 0.00 | 72 | 1006.1 |
| 20260509103627 | 24 | 151 | 0.0 | 0.0 | 0.00 | 0.00 | 0.00 | 72 | 1006.1 |
| 20260509103058 | 24 | 151 | 0.0 | 0.0 | 0.00 | 0.00 | 0.00 | 72 | 1006.1 |
| 20260509102610 | 24 | 151 | 0.0 | 1.6 | 0.00 | 0.00 | 0.00 | 72 | 1006.0 |
| 20260509102014 | 24 | 151 | 0.0 | 1.6 | 0.00 | 0.00 | 0.00 | 71 | 1006.1 |
| 20260509101546 | 24 | 151 | 0.0 | 1.6 | 0.00 | 0.00 | 0.00 | 71 | 1006.1 |
| 20260509101102 | 24 | 151 | 0.0 | 1.6 | 0.00 | 0.00 | 0.00 | 71 | 1006.0 |
| 20260509100620 | 24 | 151 | 0.0 | 1.6 | 0.00 | 0.00 | 0.00 | 71 | 1005.9 |
| 20260509100040 | 24 | 151 | 0.0 | 1.6 | 0.00 | 0.00 | 0.00 | 71 | 1005.9 |
| 20260509095609 | 24 | 151 | 0.0 | 1.6 | 0.00 | 0.00 | 0.00 | 71 | 1005.9 |
| 20260509095025 | 24 | 151 | 0.0 | 0.0 | 0.00 | 0.00 | 0.00 | 71 | 1005.9 |
| 20260509094542 | 24 | 151 | 0.0 | 0.0 | 0.00 | 0.00 | 0.00 | 71 | 1005.8 |
| 20260509094127 | 24 | 151 | 0.0 | 0.0 | 0.00 | 0.00 | 0.00 | 71 | 1005.8 |
| 20260509093515 | 25 | 151 | 0.0 | 0.0 | 0.00 | 0.00 | 0.00 | 71 | 1005.8 |
| 20260509093108 | 25 | 151 | 0.0 | 0.0 | 0.00 | 0.00 | 0.00 | 70 | 1005.8 |
| 20260509092515 | 25 | 151 | 0.0 | 0.0 | 0.00 | 0.00 | 0.00 | 70 | 1005.8 |
| 20260509092105 | 25 | 151 | 0.0 | 0.0 | 0.00 | 0.00 | 0.00 | 70 | 1005.8 |
| 20260509091624 | 25 | 151 | 0.0 | 0.0 | 0.00 | 0.00 | 0.00 | 70 | 1005.8 |
| 20260509091011 | 25 | 151 | 0.0 | 0.0 | 0.00 | 0.00 | 0.00 | 70 | 1005.8 |
| 20260509090528 | 25 | 151 | 0.0 | 1.6 | 0.00 | 0.00 | 0.00 | 70 | 1005.8 |
| 20260509090049 | 25 | 151 | 0.0 | 3.2 | 0.00 | 0.00 | 0.00 | 70 | 1005.8 |
| 20260509085616 | 25 | 151 | 0.0 | 3.2 | 0.00 | 0.00 | 0.00 | 70 | 1005.8 |
| 20260509085015 | 25 | 151 | 0.0 | 3.2 | 0.00 | 0.00 | 0.00 | 70 | 1005.7 |
| 20260509084536 | 25 | 151 | 0.0 | 1.6 | 0.00 | 0.00 | 0.00 | 70 | 1005.7 |
| 20260509084058 | 25 | 151 | 0.0 | 3.2 | 0.00 | 0.00 | 0.00 | 70 | 1005.7 |
| 20260509083619 | 25 | 151 | 0.0 | 3.2 | 0.00 | 0.00 | 0.00 | 69 | 1005.7 |
| 20260509083028 | 25 | 151 | 0.0 | 3.2 | 0.00 | 0.00 | 0.00 | 69 | 1005.7 |
| 20260509082529 | 25 | 151 | 0.0 | 3.2 | 0.00 | 0.00 | 0.00 | 69 | 1005.7 |
| 20260509082112 | 25 | 151 | 0.0 | 1.6 | 0.00 | 0.00 | 0.00 | 69 | 1005.9 |
| 20260509081629 | 25 | 151 | 0.0 | 1.6 | 0.00 | 0.00 | 0.00 | 69 | 1005.8 |
| 20260509081046 | 25 | 151 | 0.0 | 1.6 | 0.00 | 0.00 | 0.00 | 69 | 1005.8 |
| 20260509080608 | 25 | 151 | 0.0 | 0.0 | 0.00 | 0.00 | 0.00 | 69 | 1005.8 |
| 20260509080008 | 25 | 151 | 0.0 | 1.6 | 0.00 | 0.00 | 0.00 | 69 | 1005.9 |
| 20260509075531 | 25 | 151 | 0.0 | 1.6 | 0.00 | 0.00 | 0.00 | 69 | 1005.9 |
| 20260509075104 | 25 | 151 | 0.0 | 3.2 | 0.00 | 0.00 | 0.00 | 69 | 1005.9 |
| 20260509074620 | 25 | 151 | 0.0 | 3.2 | 0.00 | 0.00 | 0.00 | 69 | 1005.9 |
| 20260509074009 | 25 | 151 | 0.0 | 1.6 | 0.00 | 0.00 | 0.00 | 68 | 1006.0 |
| 20260509073530 | 25 | 151 | 0.0 | 1.6 | 0.00 | 0.00 | 0.00 | 69 | 1006.0 |
| 20260509073106 | 25 | 151 | 0.0 | 3.2 | 0.00 | 0.00 | 0.00 | 68 | 1006.0 |
| 20260509072619 | 25 | 151 | 0.0 | 3.2 | 0.00 | 0.00 | 0.00 | 68 | 1006.0 |
| 20260509072016 | 25 | 151 | 0.0 | 3.2 | 0.00 | 0.00 | 0.00 | 69 | 1005.9 |
| 20260509071542 | 25 | 151 | 1.6 | 4.8 | 0.00 | 0.00 | 0.00 | 68 | 1006.0 |
| 20260509071105 | 25 | 151 | 1.6 | 4.8 | 0.00 | 0.00 | 0.00 | 68 | 1006.0 |
| 20260509070625 | 25 | 157 | 0.0 | 1.6 | 0.00 | 0.00 | 0.00 | 68 | 1006.1 |
| 20260509070042 | 26 | 157 | 0.0 | 3.2 | 0.00 | 0.00 | 0.00 | 68 | 1006.2 |
| 20260509065607 | 26 | 157 | 0.0 | 1.6 | 0.00 | 0.00 | 0.00 | 68 | 1006.2 |
| 20260509065011 | 26 | 157 | 0.0 | 3.2 | 0.00 | 0.00 | 0.00 | 68 | 1006.3 |
| 20260509064529 | 26 | 157 | 0.0 | 1.6 | 0.00 | 0.00 | 0.00 | 68 | 1006.4 |
| 20260509064047 | 26 | 157 | 0.0 | 3.2 | 0.00 | 0.00 | 0.00 | 67 | 1006.4 |
| 20260509063601 | 26 | 157 | 0.0 | 3.2 | 0.00 | 0.00 | 0.00 | 67 | 1006.5 |
| 20260509063020 | 26 | 157 | 0.0 | 3.2 | 0.00 | 0.00 | 0.00 | 67 | 1006.5 |
| 20260509062531 | 26 | 157 | 0.0 | 3.2 | 0.00 | 0.00 | 0.00 | 67 | 1006.6 |
| 20260509062102 | 26 | 157 | 0.0 | 0.0 | 0.00 | 0.00 | 0.00 | 67 | 1006.6 |
| 20260509061619 | 26 | 157 | 0.0 | 3.2 | 0.00 | 0.00 | 0.00 | 67 | 1006.6 |
| 20260509061017 | 26 | 157 | 0.0 | 3.2 | 0.00 | 0.00 | 0.00 | 66 | 1006.6 |
| 20260509060533 | 26 | 157 | 0.0 | 3.2 | 0.00 | 0.00 | 0.00 | 66 | 1006.7 |
| 20260509060049 | 26 | 157 | 0.0 | 3.2 | 0.00 | 0.00 | 0.00 | 66 | 1006.7 |
| 20260509055616 | 26 | 157 | 0.0 | 4.8 | 0.00 | 0.00 | 0.00 | 66 | 1006.6 |
| 20260509055011 | 26 | 157 | 1.6 | 4.8 | 0.00 | 0.00 | 0.00 | 66 | 1006.6 |
| 20260509054533 | 26 | 157 | 0.0 | 3.2 | 0.00 | 0.00 | 0.00 | 66 | 1006.6 |
| 20260509054054 | 26 | 157 | 0.0 | 3.2 | 0.00 | 0.00 | 0.00 | 65 | 1006.6 |
| 20260509053611 | 26 | 157 | 0.0 | 3.2 | 0.00 | 0.00 | 0.00 | 65 | 1006.5 |
| 20260509053140 | 26 | 157 | 0.0 | 3.2 | 0.00 | 0.00 | 0.00 | 65 | 1006.5 |
| 20260509052517 | 26 | 158 | 0.0 | 3.2 | 0.00 | 0.00 | 0.00 | 65 | 1006.5 |
| 20260509052041 | 26 | 159 | 0.0 | 0.0 | 0.00 | 0.00 | 0.00 | 65 | 1006.4 |
| 20260509051601 | 26 | 159 | 0.0 | 0.0 | 0.00 | 0.00 | 0.00 | 65 | 1006.4 |
| 20260509051011 | 26 | 159 | 0.0 | 0.0 | 0.00 | 0.00 | 0.00 | 64 | 1006.4 |
| 20260509050525 | 26 | 159 | 0.0 | 0.0 | 0.00 | 0.00 | 0.00 | 64 | 1006.5 |
| 20260509050042 | 26 | 159 | 0.0 | 0.0 | 0.00 | 0.00 | 0.00 | 64 | 1006.4 |
| 20260509045618 | 27 | 159 | 0.0 | 0.0 | 0.00 | 0.00 | 0.00 | 64 | 1006.4 |
| 20260509045037 | 27 | 159 | 0.0 | 1.6 | 0.00 | 0.00 | 0.00 | 64 | 1006.4 |
| 20260509044700 | 27 | 159 | 0.0 | 3.2 | 0.00 | 0.00 | 0.00 | 64 | 1006.2 |
| 20260509044014 | 27 | 159 | 1.6 | 3.2 | 0.00 | 0.00 | 0.00 | 64 | 1006.2 |
| 20260509043535 | 27 | 159 | 0.0 | 1.6 | 0.00 | 0.00 | 0.00 | 64 | 1006.2 |
| 20260509043139 | 27 | 159 | 0.0 | 3.2 | 0.00 | 0.00 | 0.00 | 64 | 1006.1 |
| 20260509042618 | 27 | 159 | 0.0 | 3.2 | 0.00 | 0.00 | 0.00 | 64 | 1006.0 |
| 20260509042020 | 27 | 159 | 1.6 | 3.2 | 0.00 | 0.00 | 0.00 | 64 | 1006.0 |
| 20260509041537 | 27 | 159 | 0.0 | 3.2 | 0.00 | 0.00 | 0.00 | 63 | 1006.0 |
| 20260509041053 | 27 | 159 | 0.0 | 3.2 | 0.00 | 0.00 | 0.00 | 63 | 1006.0 |
| 20260509040613 | 27 | 159 | 0.0 | 4.8 | 0.00 | 0.00 | 0.00 | 63 | 1006.0 |
| 20260509040141 | 27 | 159 | 1.6 | 4.8 | 0.00 | 0.00 | 0.00 | 63 | 1005.9 |
| 20260509035517 | 27 | 159 | 0.0 | 3.2 | 0.00 | 0.00 | 0.00 | 63 | 1006.0 |
| 20260509035058 | 27 | 159 | 1.6 | 3.2 | 0.00 | 0.00 | 0.00 | 63 | 1006.0 |
| 20260509034622 | 27 | 159 | 0.0 | 4.8 | 0.00 | 0.00 | 0.00 | 62 | 1006.0 |
| 20260509034020 | 27 | 161 | 1.6 | 4.8 | 0.00 | 0.00 | 0.00 | 62 | 1005.9 |
| 20260509033531 | 27 | 161 | 1.6 | 4.8 | 0.00 | 0.00 | 0.00 | 62 | 1005.9 |
| 20260509033106 | 27 | 162 | 1.6 | 4.8 | 0.00 | 0.00 | 0.00 | 62 | 1005.9 |
| 20260509032623 | 27 | 162 | 1.6 | 9.7 | 0.00 | 0.00 | 0.00 | 63 | 1005.9 |
| 20260509032002 | 27 | 192 | 3.2 | 6.4 | 0.00 | 0.00 | 0.00 | 64 | 1005.8 |
| 20260509031522 | 27 | 200 | 3.2 | 6.4 | 0.00 | 0.00 | 0.00 | 64 | 1005.7 |
| 20260509031107 | 27 | 185 | 3.2 | 6.4 | 0.00 | 0.00 | 0.00 | 64 | 1005.7 |
| 20260509030626 | 27 | 203 | 3.2 | 8.0 | 0.00 | 0.00 | 0.00 | 65 | 1005.6 |
| 20260509030100 | 27 | 236 | 4.8 | 8.0 | 0.00 | 0.00 | 0.00 | 65 | 1005.5 |
| 20260509025616 | 27 | 216 | 1.6 | 6.4 | 0.00 | 0.00 | 0.00 | 65 | 1005.4 |
| 20260509025019 | 27 | 232 | 1.6 | 8.0 | 0.00 | 0.00 | 0.00 | 66 | 1005.3 |
| 20260509024539 | 27 | 190 | 6.4 | 8.0 | 0.00 | 0.00 | 0.00 | 66 | 1005.2 |
| 20260509024107 | 27 | 202 | 3.2 | 8.0 | 0.00 | 0.00 | 0.00 | 67 | 1005.2 |
| 20260509023621 | 27 | 184 | 3.2 | 9.7 | 0.00 | 0.00 | 0.00 | 67 | 1005.3 |
| 20260509023134 | 28 | 201 | 3.2 | 9.7 | 0.00 | 0.00 | 0.00 | 67 | 1005.2 |
| 20260509022520 | 28 | 181 | 3.2 | 9.7 | 0.00 | 0.00 | 0.00 | 67 | 1005.3 |
| 20260509022051 | 28 | 163 | 3.2 | 9.7 | 0.00 | 0.00 | 0.00 | 67 | 1005.2 |
| 20260509021611 | 28 | 175 | 3.2 | 8.0 | 0.00 | 0.00 | 0.00 | 67 | 1005.3 |
| 20260509021004 | 28 | 200 | 3.2 | 11.3 | 0.00 | 0.00 | 0.00 | 67 | 1005.1 |
| 20260509020524 | 28 | 202 | 3.2 | 11.3 | 0.00 | 0.00 | 0.00 | 67 | 1005.1 |
| 20260509020041 | 28 | 213 | 6.4 | 11.3 | 0.00 | 0.00 | 0.00 | 66 | 1005.0 |
| 20260509015541 | 28 | 197 | 4.8 | 16.1 | 0.00 | 0.00 | 0.00 | 67 | 1005.0 |
| 20260509015131 | 28 | 193 | 6.4 | 14.5 | 0.00 | 0.00 | 0.00 | 66 | 1005.0 |
| 20260509014515 | 28 | 240 | 6.4 | 14.5 | 0.00 | 0.00 | 0.00 | 65 | 1004.9 |
| 20260509014105 | 28 | 236 | 6.4 | 14.5 | 0.00 | 0.00 | 0.00 | 65 | 1005.0 |
| 20260509013622 | 28 | 240 | 4.8 | 16.1 | 0.00 | 0.00 | 0.00 | 64 | 1005.0 |
| 20260509013011 | 28 | 241 | 6.4 | 20.9 | 0.00 | 0.00 | 0.00 | 63 | 1005.0 |
| 20260509012524 | 28 | 246 | 6.4 | 20.9 | 0.00 | 0.00 | 0.00 | 63 | 1005.0 |
| 20260509012053 | 28 | 249 | 4.8 | 14.5 | 0.00 | 0.00 | 0.00 | 64 | 1005.0 |
| 20260509011611 | 28 | 232 | 4.8 | 12.9 | 0.00 | 0.00 | 0.00 | 65 | 1005.0 |
| 20260509011004 | 28 | 183 | 6.4 | 17.7 | 0.00 | 0.00 | 0.00 | 65 | 1005.0 |
| 20260509010520 | 28 | 215 | 6.4 | 17.7 | 0.00 | 0.00 | 0.00 | 67 | 1005.0 |
| 20260509010051 | 28 | 184 | 8.0 | 17.7 | 0.00 | 0.00 | 0.00 | 66 | 1005.1 |
| 20260509005625 | 28 | 229 | 9.7 | 17.7 | 0.00 | 0.00 | 0.00 | 66 | 1005.1 |
| 20260509005014 | 28 | 179 | 8.0 | 17.7 | 0.00 | 0.00 | 0.00 | 66 | 1005.2 |
| 20260509004546 | 28 | 244 | 8.0 | 22.5 | 0.00 | 0.00 | 0.00 | 65 | 1005.1 |
| 20260509004059 | 28 | 192 | 8.0 | 22.5 | 0.00 | 0.00 | 0.00 | 65 | 1005.1 |
| 20260509003615 | 28 | 205 | 6.4 | 16.1 | 0.00 | 0.00 | 0.00 | 65 | 1005.0 |
| 20260509003010 | 28 | 197 | 8.0 | 16.1 | 0.00 | 0.00 | 0.00 | 65 | 1005.1 |
| 20260509002528 | 28 | 242 | 6.4 | 16.1 | 0.00 | 0.00 | 0.00 | 65 | 1005.0 |
| 20260509002100 | 28 | 254 | 9.7 | 17.7 | 0.00 | 0.00 | 0.00 | 64 | 1005.0 |
| 20260509001618 | 28 | 260 | 9.7 | 17.7 | 0.00 | 0.00 | 0.00 | 65 | 1005.0 |
| 20260509001019 | 28 | 224 | 9.7 | 17.7 | 0.00 | 0.00 | 0.00 | 64 | 1004.9 |
| 20260509000534 | 29 | 217 | 9.7 | 17.7 | 0.00 | 0.00 | 0.00 | 64 | 1005.0 |
| 20260509000042 | 29 | 196 | 8.0 | 17.7 | 0.00 | 0.00 | 0.00 | 65 | 1004.9 |
| 20260508235603 | 29 | 243 | 8.0 | 16.1 | 0.00 | 0.00 | 0.00 | 64 | 1004.9 |
| 20260508235022 | 29 | 227 | 9.7 | 16.1 | 0.00 | 0.00 | 0.00 | 64 | 1004.8 |
| 20260508234534 | 29 | 256 | 6.4 | 16.1 | 0.00 | 0.00 | 0.00 | 63 | 1004.8 |
| 20260508234105 | 29 | 236 | 6.4 | 16.1 | 0.00 | 0.00 | 0.00 | 63 | 1004.8 |
| 20260508233619 | 29 | 195 | 9.7 | 16.1 | 0.00 | 0.00 | 0.00 | 63 | 1004.8 |
| 20260508233008 | 29 | 254 | 8.0 | 16.1 | 0.00 | 0.00 | 0.00 | 63 | 1004.9 |
| 20260508232520 | 30 | 206 | 8.0 | 16.1 | 0.00 | 0.00 | 0.00 | 63 | 1004.9 |
| 20260508232110 | 30 | 220 | 6.4 | 20.9 | 0.00 | 0.00 | 0.00 | 64 | 1004.9 |
| 20260508231627 | 30 | 242 | 9.7 | 20.9 | 0.00 | 0.00 | 0.00 | 64 | 1005.0 |
| 20260508231013 | 30 | 201 | 6.4 | 16.1 | 0.00 | 0.00 | 0.00 | 65 | 1005.0 |
| 20260508230528 | 30 | 262 | 8.0 | 19.3 | 0.00 | 0.00 | 0.00 | 66 | 1005.1 |
| 20260508230045 | 30 | 201 | 11.3 | 17.7 | 0.00 | 0.00 | 0.00 | 65 | 1005.1 |
| 20260508225623 | 30 | 190 | 8.0 | 17.7 | 0.00 | 0.00 | 0.00 | 65 | 1005.1 |
| 20260508225007 | 30 | 234 | 8.0 | 16.1 | 0.00 | 0.00 | 0.00 | 66 | 1005.1 |
| 20260508224528 | 30 | 263 | 9.7 | 17.7 | 0.00 | 0.00 | 0.00 | 66 | 1005.2 |
| 20260508224046 | 30 | 221 | 9.7 | 17.7 | 0.00 | 0.00 | 0.00 | 66 | 1005.2 |
| 20260508223609 | 30 | 184 | 11.3 | 17.7 | 0.00 | 0.00 | 0.00 | 66 | 1005.2 |
| 20260508223034 | 30 | 179 | 8.0 | 24.1 | 0.00 | 0.00 | 0.00 | 66 | 1005.4 |
| 20260508222533 | 30 | 237 | 9.7 | 24.1 | 0.00 | 0.00 | 0.00 | 66 | 1005.5 |
| 20260508222104 | 30 | 240 | 12.9 | 20.9 | 0.00 | 0.00 | 0.00 | 65 | 1005.5 |
| 20260508221622 | 30 | 218 | 9.7 | 17.7 | 0.00 | 0.00 | 0.00 | 65 | 1005.5 |
| 20260508221133 | 30 | 207 | 11.3 | 20.9 | 0.00 | 0.00 | 0.00 | 65 | 1005.6 |
| 20260508220518 | 30 | 211 | 11.3 | 20.9 | 0.00 | 0.00 | 0.00 | 65 | 1005.6 |
| 20260508220053 | 30 | 213 | 9.7 | 19.3 | 0.00 | 0.00 | 0.00 | 65 | 1005.7 |
| 20260508215620 | 30 | 196 | 8.0 | 16.1 | 0.00 | 0.00 | 0.00 | 66 | 1005.7 |
| 20260508215015 | 30 | 211 | 11.3 | 16.1 | 0.00 | 0.00 | 0.00 | 65 | 1005.8 |
| 20260508214529 | 30 | 198 | 9.7 | 16.1 | 0.00 | 0.00 | 0.00 | 65 | 1005.9 |
| 20260508214048 | 30 | 177 | 9.7 | 16.1 | 0.00 | 0.00 | 0.00 | 65 | 1006.0 |
| 20260508213608 | 30 | 184 | 8.0 | 19.3 | 0.00 | 0.00 | 0.00 | 65 | 1006.0 |
| 20260508213015 | 30 | 239 | 11.3 | 20.9 | 0.00 | 0.00 | 0.00 | 64 | 1006.2 |
| 20260508212520 | 31 | 181 | 8.0 | 22.5 | 0.00 | 0.00 | 0.00 | 64 | 1006.3 |
| 20260508212055 | 30 | 198 | 11.3 | 22.5 | 0.00 | 0.00 | 0.00 | 64 | 1006.4 |
| 20260508211612 | 31 | 227 | 8.0 | 22.5 | 0.00 | 0.00 | 0.00 | 65 | 1006.3 |
| 20260508211134 | 30 | 188 | 11.3 | 22.5 | 0.00 | 0.00 | 0.00 | 65 | 1006.4 |
| 20260508210517 | 30 | 257 | 8.0 | 19.3 | 0.00 | 0.00 | 0.00 | 64 | 1006.4 |
| 20260508210050 | 30 | 248 | 9.7 | 17.7 | 0.00 | 0.00 | 0.00 | 65 | 1006.4 |
| 20260508205606 | 30 | 190 | 9.7 | 16.1 | 0.00 | 0.00 | 0.00 | 66 | 1006.4 |
| 20260508205017 | 30 | 177 | 8.0 | 19.3 | 0.00 | 0.00 | 0.00 | 65 | 1006.5 |
| 20260508204535 | 31 | 223 | 9.7 | 24.1 | 0.00 | 0.00 | 0.00 | 64 | 1006.6 |
| 20260508204131 | 31 | 255 | 9.7 | 24.1 | 0.00 | 0.00 | 0.00 | 64 | 1006.6 |
| 20260508203516 | 31 | 178 | 9.7 | 20.9 | 0.00 | 0.00 | 0.00 | 64 | 1006.6 |
| 20260508203046 | 31 | 188 | 11.3 | 20.9 | 0.00 | 0.00 | 0.00 | 63 | 1006.7 |
| 20260508202559 | 31 | 190 | 9.7 | 19.3 | 0.00 | 0.00 | 0.00 | 63 | 1006.8 |
| 20260508202016 | 31 | 221 | 8.0 | 20.9 | 0.00 | 0.00 | 0.00 | 64 | 1006.9 |
| 20260508201532 | 31 | 192 | 8.0 | 16.1 | 0.00 | 0.00 | 0.00 | 63 | 1006.9 |
| 20260508201104 | 31 | 257 | 8.0 | 16.1 | 0.00 | 0.00 | 0.00 | 63 | 1006.9 |
| 20260508200620 | 31 | 199 | 8.0 | 20.9 | 0.00 | 0.00 | 0.00 | 63 | 1007.0 |
| 20260508200014 | 31 | 224 | 6.4 | 19.3 | 0.00 | 0.00 | 0.00 | 64 | 1007.0 |
| 20260508195534 | 31 | 221 | 9.7 | 19.3 | 0.00 | 0.00 | 0.00 | 65 | 1007.0 |
| 20260508195046 | 31 | 166 | 6.4 | 19.3 | 0.00 | 0.00 | 0.00 | 65 | 1007.0 |
| 20260508194606 | 31 | 257 | 9.7 | 20.9 | 0.00 | 0.00 | 0.00 | 65 | 1007.0 |
| 20260508194008 | 31 | 218 | 8.0 | 20.9 | 0.00 | 0.00 | 0.00 | 66 | 1007.0 |
| 20260508193524 | 31 | 189 | 8.0 | 19.3 | 0.00 | 0.00 | 0.00 | 65 | 1007.0 |